Regional Weather Roundup
Issued by NWS

Home | Current Version | Previous Version | Graphics & Text | Print | Product List | Glossary On
Versions: 1 2 3 4 5 6 7 8 9 10 11 12 13 14 15 16 17 18 19 20 21 22 23 24 25 26 27 28 29 30 31 32 33 34 35 36 37 38 39 40 41 42 43 44 45 46 47 48 49 50
000
ASUS43 KFSD 230002
RWRSD

WEATHER ROUNDUP FOR SOUTH DAKOTA
NATIONAL WEATHER SERVICE SIOUX FALLS SD
600 PM CST SAT NOV 22 2014

NOTE: "FAIR" INDICATES FEW OR NO CLOUDS BELOW 12,000 FEET WITH NO
SIGNIFICANT WEATHER AND/OR OBSTRUCTIONS TO VISIBILITY.


SDZ001>005-009-010-012>017-230100-
NORTHWEST AND NORTH CENTRAL SOUTH DAKOTA

CITY           SKY/WX    TMP DP  RH WIND       PRES   REMARKS
BUFFALO          N/A     45  32  60 SW3       29.31F
FAITH            N/A     44  28  53 NW10      29.40R
MOBRIDGE       CLOUDY    39  31  72 SE5       29.36S
$$

SDZ012>016-024>037-041>051-057-063-072>074-230100-
SOUTHWEST AND SOUTH CENTRAL SOUTH DAKOTA

CITY           SKY/WX    TMP DP  RH WIND       PRES   REMARKS
RAPID CTY ARPT CLOUDY    44  29  55 NW10      29.40S
PIERRE         MOCLDY    37  30  75 CALM      29.40R
CUSTER         CLOUDY    40  27  59 W12G21    29.45F
ELLSWORTH AFB  CLOUDY    46  30  53 VRB2      29.40R
PHILIP         CLOUDY    48  32  53 NW7       29.42R
PINE RIDGE     CLOUDY    42  30  62 S3        29.47R
WINNER         FAIR      53  30  41 SW7       29.42S
$$

SDZ004>011-016>023-039-040-230100-
NORTHEAST SOUTH DAKOTA

CITY           SKY/WX    TMP DP  RH WIND       PRES   REMARKS
ABERDEEN       MOCLDY    34  31  88 SW7       29.40R WCI  28
WATERTOWN      CLOUDY    34  32  92 S15       29.42S FOG     WCI  24
SISSETON         N/A     33  32  96 S9        29.43R WCI  25
$$

SDZ017-020-022-023-036>040-048>070-230100-
SOUTHEAST SOUTH DAKOTA

CITY           SKY/WX    TMP DP  RH WIND       PRES   REMARKS
SIOUX FALLS    CLOUDY    41  35  79 S15       29.48F
HURON          MOCLDY    39  33  79 SE12      29.40F
CHAMBERLAIN    CLOUDY    45  32  60 N5        29.42R
MITCHELL       MOCLDY    44  35  70 S12       29.43R
YANKTON        MOCLDY    45  34  65 S15       29.49S
$$

ABBREVIATIONS USED IN REMARKS
   TC - TEMPERATURE IN CELSIUS
  WCI - WIND CHILL INDEX
   HX - HEAT INDEX
  VSB - VISIBILITY



USA.gov is the U.S. government's official web portal to all federal, state and local government web resources and services.